Location: Roanoke
(37.2710°N, 79.9420°W)
Time: 16:15:24
(UTC-05:00)

Cosmos 1441 Rocket - Visible Passes

Search period start: 09 December 2016 00:00
Search period end: 19 December 2016 00:00
Orbit: 500 x 544 km, 81.1° (Epoch: 09 December)

Date Brightness Start Highest point End Pass type
(mag) Time Alt. Az. Time Alt. Az. Time Alt. Az.
10 Dec 6.1 06:50:32 10° NNE 06:52:59 16° ENE 06:55:25 10° ESE visible
11 Dec 6.1 06:37:41 10° NE 06:39:48 14° ENE 06:41:53 10° ESE visible
12 Dec 6.2 06:24:56 10° NE 06:26:36 12° ENE 06:28:15 10° E visible
13 Dec 6.4 06:12:25 10° NE 06:13:24 11° ENE 06:14:22 10° E visible
17 Dec 3.2 06:53:12 10° N 06:57:05 80° W 07:00:54 10° S visible
18 Dec 3.2 06:40:02 10° N 06:43:56 88° E 06:47:45 10° S visible
